Year,Month,Day,Hour,Minute,Value (Times are PST for temperature in C)
2021,12,01,00,00,10.70
2021,12,01,00,01,10.70
2021,12,01,00,02,10.70
2021,12,01,00,03,10.70
2021,12,01,00,04,10.60
2021,12,01,00,05,10.60
2021,12,01,00,06,10.60
2021,12,01,00,07,10.60
2021,12,01,00,08,10.60
2021,12,01,00,09,10.60
2021,12,01,00,10,10.60
2021,12,01,00,11,10.60
2021,12,01,00,12,10.60
2021,12,01,00,13,10.60
2021,12,01,00,14,10.60
2021,12,01,00,15,10.60
2021,12,01,00,16,10.60
2021,12,01,00,17,10.60
2021,12,01,00,18,10.60
2021,12,01,00,19,10.50
2021,12,01,00,20,10.50
2021,12,01,00,21,10.60
2021,12,01,00,22,10.50
2021,12,01,00,23,10.50
2021,12,01,00,24,10.50
2021,12,01,00,25,10.50
2021,12,01,00,26,10.50
2021,12,01,00,27,10.50
2021,12,01,00,28,10.50
2021,12,01,00,29,10.40
2021,12,01,00,30,10.50
2021,12,01,00,31,10.50
2021,12,01,00,32,10.50
2021,12,01,00,33,10.50
2021,12,01,00,34,10.50
2021,12,01,00,35,10.50
2021,12,01,00,36,10.50
2021,12,01,00,37,10.50
2021,12,01,00,38,10.60
2021,12,01,00,39,10.60
2021,12,01,00,40,10.60
2021,12,01,00,41,10.60
2021,12,01,00,42,10.70
2021,12,01,00,43,10.70
2021,12,01,00,44,10.70
2021,12,01,00,45,10.70
2021,12,01,00,46,10.70
2021,12,01,00,47,10.70
2021,12,01,00,48,10.70
2021,12,01,00,49,10.70
2021,12,01,00,50,10.70
2021,12,01,00,51,10.70
2021,12,01,00,52,10.70
2021,12,01,00,53,10.70
2021,12,01,00,54,10.80
2021,12,01,00,55,10.70
2021,12,01,00,56,10.80
2021,12,01,00,57,10.80
2021,12,01,00,58,10.70
2021,12,01,00,59,10.80
2021,12,01,01,00,10.70
2021,12,01,01,01,10.70
2021,12,01,01,02,10.80
2021,12,01,01,03,10.70
2021,12,01,01,04,10.70
2021,12,01,01,05,10.70
2021,12,01,01,06,10.70
2021,12,01,01,07,10.70
2021,12,01,01,08,10.70
2021,12,01,01,09,10.70
2021,12,01,01,10,10.70
2021,12,01,01,11,10.60
2021,12,01,01,12,10.60
2021,12,01,01,13,10.60
2021,12,01,01,14,10.60
2021,12,01,01,15,10.60
2021,12,01,01,16,10.60
2021,12,01,01,17,10.60
2021,12,01,01,18,10.60
2021,12,01,01,19,10.60
2021,12,01,01,20,10.50
2021,12,01,01,21,10.50
2021,12,01,01,22,10.50
2021,12,01,01,23,10.50
2021,12,01,01,24,10.50
2021,12,01,01,25,10.50
2021,12,01,01,26,10.50
2021,12,01,01,27,10.50
2021,12,01,01,28,10.50
2021,12,01,01,29,10.50
2021,12,01,01,30,10.50
2021,12,01,01,31,10.50
2021,12,01,01,32,10.50
2021,12,01,01,33,10.50
2021,12,01,01,34,10.50
2021,12,01,01,35,10.50
2021,12,01,01,36,10.50
2021,12,01,01,37,10.50
2021,12,01,01,38,10.50
2021,12,01,01,39,10.60
2021,12,01,01,40,10.60
2021,12,01,01,41,10.60
2021,12,01,01,42,10.60
2021,12,01,01,43,10.60
2021,12,01,01,44,10.60
2021,12,01,01,45,10.60
2021,12,01,01,46,10.60
2021,12,01,01,47,10.60
2021,12,01,01,48,10.60
2021,12,01,01,49,10.60
2021,12,01,01,50,10.60
2021,12,01,01,51,10.60
2021,12,01,01,52,10.50
2021,12,01,01,53,10.50
2021,12,01,01,54,10.50
2021,12,01,01,55,10.50
2021,12,01,01,56,10.50
2021,12,01,01,57,10.50
2021,12,01,01,58,10.50
2021,12,01,01,59,10.50
2021,12,01,02,00,10.50
2021,12,01,02,01,10.40
2021,12,01,02,02,10.40
2021,12,01,02,03,10.40
2021,12,01,02,04,10.40
2021,12,01,02,05,10.40
2021,12,01,02,06,10.40
2021,12,01,02,07,10.40
2021,12,01,02,08,10.40
2021,12,01,02,09,10.40
2021,12,01,02,10,10.40
2021,12,01,02,11,10.40
2021,12,01,02,12,10.40
2021,12,01,02,13,10.40
2021,12,01,02,14,10.40
2021,12,01,02,15,10.40
2021,12,01,02,16,10.40
2021,12,01,02,17,10.40
2021,12,01,02,18,10.40
2021,12,01,02,19,10.40
2021,12,01,02,20,10.40
2021,12,01,02,21,10.40
2021,12,01,02,22,10.40
2021,12,01,02,23,10.40
2021,12,01,02,24,10.40
2021,12,01,02,25,10.40
2021,12,01,02,26,10.40
2021,12,01,02,27,10.40
2021,12,01,02,28,10.40
2021,12,01,02,29,10.40
2021,12,01,02,30,10.40
2021,12,01,02,31,10.40
2021,12,01,02,32,10.40
2021,12,01,02,33,10.40
2021,12,01,02,34,10.40
2021,12,01,02,35,10.40
2021,12,01,02,36,10.40
2021,12,01,02,37,10.40
2021,12,01,02,38,10.40
2021,12,01,02,39,10.40
2021,12,01,02,40,10.40
2021,12,01,02,41,10.40
2021,12,01,02,42,10.30
2021,12,01,02,43,10.40
2021,12,01,02,44,10.40
2021,12,01,02,45,10.30
2021,12,01,02,46,10.40
2021,12,01,02,47,10.40
2021,12,01,02,48,10.40
2021,12,01,02,49,10.40
2021,12,01,02,50,10.40
2021,12,01,02,51,10.40
2021,12,01,02,52,10.40
2021,12,01,02,53,10.40
2021,12,01,02,54,10.40
2021,12,01,02,55,10.40
2021,12,01,02,56,10.50
2021,12,01,02,57,10.50
2021,12,01,02,58,10.50
2021,12,01,02,59,10.50
2021,12,01,03,00,10.50
2021,12,01,03,01,10.50
2021,12,01,03,02,10.50
2021,12,01,03,03,10.50
2021,12,01,03,04,10.60
2021,12,01,03,05,10.60
2021,12,01,03,06,10.60
2021,12,01,03,07,10.60
2021,12,01,03,08,10.60
2021,12,01,03,09,10.60
2021,12,01,03,10,10.60
2021,12,01,03,11,10.60
2021,12,01,03,12,10.60
2021,12,01,03,13,10.60
2021,12,01,03,14,10.60
2021,12,01,03,15,10.60
2021,12,01,03,16,10.60
2021,12,01,03,17,10.60
2021,12,01,03,18,10.60
2021,12,01,03,19,10.60
2021,12,01,03,20,10.60
2021,12,01,03,21,10.60
2021,12,01,03,22,10.60
2021,12,01,03,23,10.60
2021,12,01,03,24,10.60
2021,12,01,03,25,10.60
2021,12,01,03,26,10.60
2021,12,01,03,27,10.60
2021,12,01,03,28,10.60
2021,12,01,03,29,10.60
2021,12,01,03,30,10.60
2021,12,01,03,31,10.60
2021,12,01,03,32,10.60
2021,12,01,03,33,10.60
2021,12,01,03,34,10.60
2021,12,01,03,35,10.60
2021,12,01,03,36,10.60
2021,12,01,03,37,10.60
2021,12,01,03,38,10.60
2021,12,01,03,39,10.60
2021,12,01,03,40,10.60
2021,12,01,03,41,10.60
2021,12,01,03,42,10.60
2021,12,01,03,43,10.60
2021,12,01,03,44,10.60
2021,12,01,03,45,10.60
2021,12,01,03,46,10.50
2021,12,01,03,47,10.50
2021,12,01,03,48,10.50
2021,12,01,03,49,10.50
2021,12,01,03,50,10.50
2021,12,01,03,51,10.50
2021,12,01,03,52,10.50
2021,12,01,03,53,10.50
2021,12,01,03,54,10.50
2021,12,01,03,55,10.50
2021,12,01,03,56,10.50
2021,12,01,03,57,10.50
2021,12,01,03,58,10.50
2021,12,01,03,59,10.50
2021,12,01,04,00,10.50
2021,12,01,04,01,10.50
2021,12,01,04,02,10.50
2021,12,01,04,03,10.50
2021,12,01,04,04,10.50
2021,12,01,04,05,10.50
2021,12,01,04,06,10.50
2021,12,01,04,07,10.50
2021,12,01,04,08,10.50
2021,12,01,04,09,10.60
2021,12,01,04,10,10.60
2021,12,01,04,11,10.60
2021,12,01,04,12,10.60
2021,12,01,04,13,10.60
2021,12,01,04,14,10.60
2021,12,01,04,15,10.60
2021,12,01,04,16,10.60
2021,12,01,04,17,10.70
2021,12,01,04,18,10.70
2021,12,01,04,19,10.70
2021,12,01,04,20,10.70
2021,12,01,04,21,10.70
2021,12,01,04,22,10.70
2021,12,01,04,23,10.80
2021,12,01,04,24,10.80
2021,12,01,04,25,10.80
2021,12,01,04,26,10.80
2021,12,01,04,27,10.80
2021,12,01,04,28,10.80
2021,12,01,04,29,10.80
2021,12,01,04,30,10.80
2021,12,01,04,31,10.80
2021,12,01,04,32,10.80
2021,12,01,04,33,10.80
2021,12,01,04,34,10.80
2021,12,01,04,35,10.80
2021,12,01,04,36,10.80
2021,12,01,04,37,10.80
2021,12,01,04,38,10.80
2021,12,01,04,39,10.80
2021,12,01,04,40,10.80
2021,12,01,04,41,10.80
2021,12,01,04,42,10.80
2021,12,01,04,43,10.80
2021,12,01,04,44,10.80
2021,12,01,04,45,10.80
2021,12,01,04,46,10.80
2021,12,01,04,47,10.80
2021,12,01,04,48,10.80
2021,12,01,04,49,10.80
2021,12,01,04,50,10.80
2021,12,01,04,51,10.80
2021,12,01,04,52,10.80
2021,12,01,04,53,10.80
2021,12,01,04,54,10.80
2021,12,01,04,55,10.80
2021,12,01,04,56,10.80
2021,12,01,04,57,10.80
2021,12,01,04,58,10.80
2021,12,01,04,59,10.80
2021,12,01,05,00,10.80
2021,12,01,05,01,10.80
2021,12,01,05,02,10.80
2021,12,01,05,03,10.80
2021,12,01,05,04,10.80
2021,12,01,05,05,10.80
2021,12,01,05,06,10.70
2021,12,01,05,07,10.70
2021,12,01,05,08,10.70
2021,12,01,05,09,10.70
2021,12,01,05,10,10.70
2021,12,01,05,11,10.70
2021,12,01,05,12,10.60
2021,12,01,05,13,10.60
2021,12,01,05,14,10.60
2021,12,01,05,15,10.60
2021,12,01,05,16,10.60
2021,12,01,05,17,10.60
2021,12,01,05,18,10.60
2021,12,01,05,19,10.60
2021,12,01,05,20,10.50
2021,12,01,05,21,10.50
2021,12,01,05,22,10.50
2021,12,01,05,23,10.50
2021,12,01,05,24,10.50
2021,12,01,05,25,10.50
2021,12,01,05,26,10.50
2021,12,01,05,27,10.50
2021,12,01,05,28,10.50
2021,12,01,05,29,10.50
2021,12,01,05,30,10.40
2021,12,01,05,31,10.40
2021,12,01,05,32,10.40
2021,12,01,05,33,10.40
2021,12,01,05,34,10.50
2021,12,01,05,35,10.50
2021,12,01,05,36,10.50
2021,12,01,05,37,10.50
2021,12,01,05,38,10.50
2021,12,01,05,39,10.50
2021,12,01,05,40,10.60
2021,12,01,05,41,10.60
2021,12,01,05,42,10.60
2021,12,01,05,43,10.60
2021,12,01,05,44,10.60
2021,12,01,05,45,10.60
2021,12,01,05,46,10.60
2021,12,01,05,47,10.60
2021,12,01,05,48,10.60
2021,12,01,05,49,10.60
2021,12,01,05,50,10.70
2021,12,01,05,51,10.70
2021,12,01,05,52,10.70
2021,12,01,05,53,10.70
2021,12,01,05,54,10.70
2021,12,01,05,55,10.70
2021,12,01,05,56,10.60
2021,12,01,05,57,10.60
2021,12,01,05,58,10.60
2021,12,01,05,59,10.60
2021,12,01,06,00,10.60
2021,12,01,06,01,10.60
2021,12,01,06,02,10.60
2021,12,01,06,03,10.70
2021,12,01,06,04,10.70
2021,12,01,06,05,10.70
2021,12,01,06,06,10.70
2021,12,01,06,07,10.70
2021,12,01,06,08,10.70
2021,12,01,06,09,10.70
2021,12,01,06,10,10.70
2021,12,01,06,11,10.70
2021,12,01,06,12,10.80
2021,12,01,06,13,10.80
2021,12,01,06,14,10.80
2021,12,01,06,15,10.80
2021,12,01,06,16,10.80
2021,12,01,06,17,10.80
2021,12,01,06,18,10.80
2021,12,01,06,19,10.80
2021,12,01,06,20,10.80
2021,12,01,06,21,10.80
2021,12,01,06,22,10.80
2021,12,01,06,23,10.80
2021,12,01,06,24,10.70
2021,12,01,06,25,10.70
2021,12,01,06,26,10.70
2021,12,01,06,27,10.70
2021,12,01,06,28,10.70
2021,12,01,06,29,10.70
2021,12,01,06,30,10.70
2021,12,01,06,31,10.70
2021,12,01,06,32,10.70
2021,12,01,06,33,10.70
2021,12,01,06,34,10.70
2021,12,01,06,35,10.70
2021,12,01,06,36,10.70
2021,12,01,06,37,10.70
2021,12,01,06,38,10.70
2021,12,01,06,39,10.70
2021,12,01,06,40,10.70
2021,12,01,06,41,10.70
2021,12,01,06,42,10.70
2021,12,01,06,43,10.70
2021,12,01,06,44,10.70
2021,12,01,06,45,10.70
2021,12,01,06,46,10.70
2021,12,01,06,47,10.70
2021,12,01,06,48,10.70
2021,12,01,06,49,10.70
2021,12,01,06,50,10.70
2021,12,01,06,51,10.70
2021,12,01,06,52,10.70
2021,12,01,06,53,10.80
2021,12,01,06,54,10.80
2021,12,01,06,55,10.80
2021,12,01,06,56,10.80
2021,12,01,06,57,10.80
2021,12,01,06,58,10.80
2021,12,01,06,59,10.80
2021,12,01,07,00,10.80
2021,12,01,07,01,10.80
2021,12,01,07,02,10.80
2021,12,01,07,03,10.90
2021,12,01,07,04,10.90
2021,12,01,07,05,10.90
2021,12,01,07,06,10.90
2021,12,01,07,07,10.90
2021,12,01,07,08,10.90
2021,12,01,07,09,10.90
2021,12,01,07,10,10.90
2021,12,01,07,11,10.90
2021,12,01,07,12,10.90
2021,12,01,07,13,10.90
2021,12,01,07,14,10.90
2021,12,01,07,15,10.90
2021,12,01,07,16,10.90
2021,12,01,07,17,10.90
2021,12,01,07,18,10.90
2021,12,01,07,19,10.90
2021,12,01,07,20,10.90
2021,12,01,07,21,10.90
2021,12,01,07,22,10.90
2021,12,01,07,23,10.90
2021,12,01,07,24,11.00
2021,12,01,07,25,10.90
2021,12,01,07,26,11.00
2021,12,01,07,27,10.90
2021,12,01,07,28,10.90
2021,12,01,07,29,10.90
2021,12,01,07,30,10.90
2021,12,01,07,31,10.90
2021,12,01,07,32,10.90
2021,12,01,07,33,10.90
2021,12,01,07,34,10.90
2021,12,01,07,35,10.90
2021,12,01,07,36,10.90
2021,12,01,07,37,10.80
2021,12,01,07,38,10.80
2021,12,01,07,39,10.80
2021,12,01,07,40,10.80
2021,12,01,07,41,10.80
2021,12,01,07,42,10.80
2021,12,01,07,43,10.80
2021,12,01,07,44,10.80
2021,12,01,07,45,10.80
2021,12,01,07,46,10.80
2021,12,01,07,47,10.80
2021,12,01,07,48,10.80
2021,12,01,07,49,10.80
2021,12,01,07,50,10.80
2021,12,01,07,51,10.80
2021,12,01,07,52,10.80
2021,12,01,07,53,10.80
2021,12,01,07,54,10.80
2021,12,01,07,55,10.80
2021,12,01,07,56,10.80
2021,12,01,07,57,10.80
2021,12,01,07,58,10.80
2021,12,01,07,59,10.80
2021,12,01,08,00,10.80
2021,12,01,08,01,10.80
2021,12,01,08,02,10.80
2021,12,01,08,03,10.70
2021,12,01,08,04,10.70
2021,12,01,08,05,10.70
2021,12,01,08,06,10.70
2021,12,01,08,07,10.70
2021,12,01,08,08,10.70
2021,12,01,08,09,10.70
2021,12,01,08,10,10.70
2021,12,01,08,11,10.70
2021,12,01,08,12,10.80
2021,12,01,08,13,10.70
2021,12,01,08,14,10.80
2021,12,01,08,15,10.80
2021,12,01,08,16,10.80
2021,12,01,08,17,10.80
2021,12,01,08,18,10.80
2021,12,01,08,19,10.80
2021,12,01,08,20,10.80
2021,12,01,08,21,10.80
2021,12,01,08,22,10.80
2021,12,01,08,23,10.80
2021,12,01,08,24,10.80
2021,12,01,08,25,10.80
2021,12,01,08,26,10.80
2021,12,01,08,27,10.80
2021,12,01,08,28,10.80
2021,12,01,08,29,10.80
2021,12,01,08,30,10.80
2021,12,01,08,31,10.80
2021,12,01,08,32,10.80
2021,12,01,08,33,10.80
2021,12,01,08,34,10.80
2021,12,01,08,35,10.80
2021,12,01,08,36,10.80
2021,12,01,08,37,10.80
2021,12,01,08,38,10.80
2021,12,01,08,39,10.70
2021,12,01,08,40,10.70
2021,12,01,08,41,10.70
2021,12,01,08,42,10.70
2021,12,01,08,43,10.70
2021,12,01,08,44,10.70
2021,12,01,08,45,10.70
2021,12,01,08,46,10.70
2021,12,01,08,47,10.70
2021,12,01,08,48,10.70
2021,12,01,08,49,10.70
2021,12,01,08,50,10.70
2021,12,01,08,51,10.70
2021,12,01,08,52,10.70
2021,12,01,14,13,11.40
2021,12,01,14,14,11.40
2021,12,01,14,15,11.40
2021,12,01,14,16,11.40
2021,12,01,14,17,11.40
2021,12,01,14,18,11.40
2021,12,01,14,19,11.40
2021,12,01,14,20,11.40
2021,12,01,14,21,11.40
2021,12,01,14,22,11.40
2021,12,01,14,23,11.40
2021,12,01,14,24,11.40
2021,12,01,14,25,11.40
2021,12,01,14,26,11.40
2021,12,01,14,27,11.40
2021,12,01,14,28,11.40
2021,12,01,14,29,11.40
2021,12,01,14,30,11.40
2021,12,01,14,31,11.40
2021,12,01,14,32,11.40
2021,12,01,14,33,11.40
2021,12,01,14,34,11.40
2021,12,01,14,35,11.40
2021,12,01,14,36,11.40
2021,12,01,14,37,11.40
2021,12,01,14,38,11.40
2021,12,01,14,39,11.40
2021,12,01,14,40,11.40
2021,12,01,14,41,11.40
2021,12,01,14,42,11.40
2021,12,01,14,43,11.40
2021,12,01,14,44,11.40
2021,12,01,14,45,11.30
2021,12,01,14,46,11.40
2021,12,01,14,47,11.40
2021,12,01,14,48,11.40
2021,12,01,14,49,11.40
2021,12,01,14,50,11.30
2021,12,01,14,51,11.30
2021,12,01,14,52,11.40
2021,12,01,14,53,11.30
2021,12,01,14,54,11.40
2021,12,01,14,55,11.30
2021,12,01,14,56,11.40
2021,12,01,14,57,11.40
2021,12,01,14,58,11.40
2021,12,01,14,59,11.30
2021,12,01,15,00,11.30
2021,12,01,15,01,11.30
2021,12,01,15,02,11.30
2021,12,01,15,03,11.30
2021,12,01,15,04,11.40
2021,12,01,15,05,11.30
2021,12,01,15,06,11.30
2021,12,01,15,07,11.40
2021,12,01,15,08,11.30
2021,12,01,15,09,11.30
2021,12,01,15,10,11.40
2021,12,01,15,11,11.40
2021,12,01,15,12,11.30
2021,12,01,15,13,11.40
2021,12,01,15,14,11.40
2021,12,01,15,15,11.40
2021,12,01,15,16,11.40
2021,12,01,15,17,11.40
2021,12,01,15,18,11.40
2021,12,01,15,19,11.40
2021,12,01,15,20,11.40
2021,12,01,15,21,11.40
2021,12,01,15,22,11.40
2021,12,01,15,23,11.40
2021,12,01,15,24,11.40
2021,12,01,15,25,11.40
2021,12,01,15,26,11.40
2021,12,01,15,27,11.40
2021,12,01,15,28,11.40
2021,12,01,15,29,11.40
2021,12,01,15,30,11.40
2021,12,01,15,31,11.40
2021,12,01,15,32,11.40
2021,12,01,15,33,11.40
2021,12,01,15,34,11.30
2021,12,01,15,35,11.40
2021,12,01,15,36,11.30
2021,12,01,15,37,11.30
2021,12,01,15,38,11.30
2021,12,01,15,39,11.30
2021,12,01,15,40,11.30
2021,12,01,15,41,11.30
2021,12,01,15,42,11.30
2021,12,01,15,43,11.30
2021,12,01,15,44,11.30
2021,12,01,15,45,11.30
2021,12,01,15,46,11.30
2021,12,01,15,47,11.30
2021,12,01,15,48,11.30
2021,12,01,15,49,11.30
2021,12,01,15,50,11.30
2021,12,01,15,51,11.30
2021,12,01,15,52,11.20
2021,12,01,15,53,11.20
2021,12,01,15,54,11.20
2021,12,01,15,55,11.20
2021,12,01,15,56,11.20
2021,12,01,15,57,11.20
2021,12,01,15,58,11.20
2021,12,01,15,59,11.20
2021,12,01,16,00,11.20
2021,12,01,16,01,11.20
2021,12,01,16,02,11.20
2021,12,01,16,03,11.20
2021,12,01,16,04,11.20
2021,12,01,16,05,11.20
2021,12,01,16,06,11.20
2021,12,01,16,07,11.20
2021,12,01,16,08,11.10
2021,12,01,16,09,11.10
2021,12,01,16,10,11.10
2021,12,01,16,11,11.10
2021,12,01,16,12,11.10
2021,12,01,16,13,11.00
2021,12,01,16,14,11.00
2021,12,01,16,15,11.00
2021,12,01,16,16,11.00
2021,12,01,16,17,11.00
2021,12,01,16,18,11.00
2021,12,01,16,19,10.90
2021,12,01,16,20,10.90
2021,12,01,16,21,10.90
2021,12,01,16,22,10.90
2021,12,01,16,23,10.90
2021,12,01,16,24,10.90
2021,12,01,16,25,10.90
2021,12,01,16,26,10.90
2021,12,01,16,27,10.90
2021,12,01,16,28,10.90
2021,12,01,16,29,10.90
2021,12,01,16,30,10.90
2021,12,01,16,31,10.90
2021,12,01,16,32,10.80
2021,12,01,16,33,10.80
2021,12,01,16,34,10.80
2021,12,01,16,35,10.90
2021,12,01,16,36,10.80
2021,12,01,16,37,10.80
2021,12,01,16,38,10.80
2021,12,01,16,39,10.80
2021,12,01,16,40,10.80
2021,12,01,16,41,10.80
2021,12,01,16,42,10.80
2021,12,01,16,43,10.80
2021,12,01,16,44,10.90
2021,12,01,16,45,10.80
2021,12,01,16,46,10.80
2021,12,01,16,47,10.80
2021,12,01,16,48,10.80
2021,12,01,16,49,10.90
2021,12,01,16,50,10.90
2021,12,01,16,51,10.90
2021,12,01,16,52,10.90
2021,12,01,16,53,10.90
2021,12,01,16,54,10.90
2021,12,01,16,55,10.90
2021,12,01,16,56,10.90
2021,12,01,16,57,10.90
2021,12,01,16,58,10.90
2021,12,01,16,59,10.90
2021,12,01,17,00,10.90
2021,12,01,17,01,10.90
2021,12,01,17,02,10.90
2021,12,01,17,03,10.90
2021,12,01,17,04,10.90
2021,12,01,17,05,10.90
2021,12,01,17,06,10.90
2021,12,01,17,07,10.90
2021,12,01,17,08,10.90
2021,12,01,17,09,10.90
2021,12,01,17,10,10.90
2021,12,01,17,11,10.90
2021,12,01,17,12,11.00
2021,12,01,17,13,11.00
2021,12,01,17,14,11.00
2021,12,01,17,15,11.00
2021,12,01,17,16,11.00
2021,12,01,17,17,11.00
2021,12,01,17,18,11.00
2021,12,01,17,19,11.00
2021,12,01,17,20,11.00
2021,12,01,17,21,11.00
2021,12,01,17,22,11.10
2021,12,01,17,23,11.10
2021,12,01,17,24,11.10
2021,12,01,17,25,11.10
2021,12,01,17,26,11.10
2021,12,01,17,27,11.10
2021,12,01,17,28,11.10
2021,12,01,17,29,11.10
2021,12,01,17,30,11.10
2021,12,01,17,31,11.10
2021,12,01,17,32,11.10
2021,12,01,17,33,11.10
2021,12,01,17,34,11.20
2021,12,01,17,35,11.10
2021,12,01,17,36,11.10
2021,12,01,17,37,11.10
2021,12,01,17,38,11.10
2021,12,01,17,39,11.20
2021,12,01,17,40,11.10
2021,12,01,17,41,11.20
2021,12,01,17,42,11.10
2021,12,01,17,43,11.10
2021,12,01,17,44,11.10
2021,12,01,17,45,11.10
2021,12,01,17,46,11.10
2021,12,01,17,47,11.10
2021,12,01,17,48,11.10
2021,12,01,17,49,11.10
2021,12,01,17,50,11.10
2021,12,01,17,51,11.10
2021,12,01,17,52,11.10
2021,12,01,17,53,11.10
2021,12,01,17,54,11.10
2021,12,01,17,55,11.10
2021,12,01,17,56,11.10
2021,12,01,17,57,11.10
2021,12,01,17,58,11.10
2021,12,01,17,59,11.10
2021,12,01,18,00,11.10
2021,12,01,18,01,11.10
2021,12,01,18,02,11.10
2021,12,01,18,03,11.10
2021,12,01,18,04,11.10
2021,12,01,18,05,11.10
2021,12,01,18,06,11.10
2021,12,01,18,07,11.00
2021,12,01,18,08,11.10
2021,12,01,18,09,11.10
2021,12,01,18,10,11.00
2021,12,01,18,11,11.00
2021,12,01,18,12,11.00
2021,12,01,18,13,11.00
2021,12,01,18,14,11.00
2021,12,01,18,15,11.00
2021,12,01,18,16,11.00
2021,12,01,18,17,11.00
2021,12,01,18,18,11.00
2021,12,01,18,19,11.00
2021,12,01,18,20,10.90
2021,12,01,18,21,10.90
2021,12,01,18,22,10.90
2021,12,01,18,23,10.90
2021,12,01,18,24,10.90
2021,12,01,18,25,10.90
2021,12,01,18,26,10.90
2021,12,01,18,27,10.90
2021,12,01,18,28,10.90
2021,12,01,18,29,10.90
2021,12,01,18,30,10.90
2021,12,01,18,31,10.90
2021,12,01,18,32,10.90
2021,12,01,18,33,10.80
2021,12,01,18,34,10.80
2021,12,01,18,35,10.80
2021,12,01,18,36,10.80
2021,12,01,18,37,10.80
2021,12,01,18,38,10.80
2021,12,01,18,39,10.80
2021,12,01,18,40,10.80
2021,12,01,18,41,10.80
2021,12,01,18,42,10.80
2021,12,01,18,43,10.80
2021,12,01,18,44,10.80
2021,12,01,18,45,10.80
2021,12,01,18,46,10.80
2021,12,01,18,47,10.80
2021,12,01,18,48,10.80
2021,12,01,18,49,10.80
2021,12,01,18,50,10.80
2021,12,01,18,51,10.80
2021,12,01,18,52,10.80
2021,12,01,18,53,10.80
2021,12,01,18,54,10.80
2021,12,01,18,55,10.80
2021,12,01,18,56,10.80
2021,12,01,18,57,10.80
2021,12,01,18,58,10.90
2021,12,01,18,59,10.90
2021,12,01,19,00,11.00
2021,12,01,19,01,11.00
2021,12,01,19,02,11.00
2021,12,01,19,03,11.10
2021,12,01,19,04,11.10
2021,12,01,19,05,11.20
2021,12,01,19,06,11.20
2021,12,01,19,07,11.20
2021,12,01,19,08,11.20
2021,12,01,19,09,11.20
2021,12,01,19,10,11.20
2021,12,01,19,11,11.10
2021,12,01,19,12,11.10
2021,12,01,19,13,11.10
2021,12,01,19,14,11.20
2021,12,01,19,15,11.20
2021,12,01,19,16,11.30
2021,12,01,19,17,11.30
2021,12,01,19,18,11.40
2021,12,01,19,19,11.40
2021,12,01,19,20,11.50
2021,12,01,19,21,11.60
2021,12,01,19,22,11.60
2021,12,01,19,23,11.70
2021,12,01,19,24,11.70
2021,12,01,19,25,11.70
2021,12,01,19,26,11.70
2021,12,01,19,27,11.70
2021,12,01,19,28,11.70
2021,12,01,19,29,11.70
2021,12,01,19,30,11.70
2021,12,01,19,31,11.70
2021,12,01,19,32,11.70
2021,12,01,19,33,11.70
2021,12,01,19,34,11.70
2021,12,01,19,35,11.70
2021,12,01,19,36,11.70
2021,12,01,19,37,11.70
2021,12,01,19,38,11.70
2021,12,01,19,39,11.70
2021,12,01,19,40,11.70
2021,12,01,19,41,11.70
2021,12,01,19,42,11.70
2021,12,01,19,43,11.70
2021,12,01,19,44,11.70
2021,12,01,19,45,11.70
2021,12,01,19,46,11.70
2021,12,01,19,47,11.70
2021,12,01,19,48,11.70
2021,12,01,19,49,11.70
2021,12,01,19,50,11.70
2021,12,01,19,51,11.70
2021,12,01,19,52,11.70
2021,12,01,19,53,11.60
2021,12,01,19,54,11.60
2021,12,01,19,55,11.60
2021,12,01,19,56,11.60
2021,12,01,19,57,11.60
2021,12,01,19,58,11.50
2021,12,01,19,59,11.40
2021,12,01,20,00,11.40
2021,12,01,20,01,11.40
2021,12,01,20,02,11.40
2021,12,01,20,03,11.40
2021,12,01,20,04,11.50
2021,12,01,20,05,11.50
2021,12,01,20,06,11.60
2021,12,01,20,07,11.60
2021,12,01,20,08,11.60
2021,12,01,20,09,11.70
2021,12,01,20,10,11.70
2021,12,01,20,11,11.70
2021,12,01,20,12,11.70
2021,12,01,20,13,11.70
2021,12,01,20,14,11.70
2021,12,01,20,15,11.60
2021,12,01,20,16,11.60
2021,12,01,20,17,11.60
2021,12,01,20,18,11.50
2021,12,01,20,19,11.50
2021,12,01,20,20,11.50
2021,12,01,20,21,11.50
2021,12,01,20,22,11.40
2021,12,01,20,23,11.40
2021,12,01,20,24,11.40
2021,12,01,20,25,11.30
2021,12,01,20,26,11.30
2021,12,01,20,27,11.30
2021,12,01,20,28,11.40
2021,12,01,20,29,11.40
2021,12,01,20,30,11.40
2021,12,01,20,31,11.40
2021,12,01,20,32,11.50
2021,12,01,20,33,11.50
2021,12,01,20,34,11.50
2021,12,01,20,35,11.50
2021,12,01,20,36,11.50
2021,12,01,20,37,11.60
2021,12,01,20,38,11.60
2021,12,01,20,39,11.60
2021,12,01,20,40,11.60
2021,12,01,20,41,11.60
2021,12,01,20,42,11.60
2021,12,01,20,43,11.60
2021,12,01,20,44,11.60
2021,12,01,20,45,11.60
2021,12,01,20,46,11.60
2021,12,01,20,47,11.60
2021,12,01,20,48,11.70
2021,12,01,20,49,11.70
2021,12,01,20,50,11.70
2021,12,01,20,51,11.70
2021,12,01,20,52,11.70
2021,12,01,20,53,11.70
2021,12,01,20,54,11.80
2021,12,01,20,55,11.80
2021,12,01,20,56,11.80
2021,12,01,20,57,11.80
2021,12,01,20,58,11.90
2021,12,01,20,59,11.90
2021,12,01,21,00,11.90
2021,12,01,21,01,11.90
2021,12,01,21,02,11.90
2021,12,01,21,03,11.90
2021,12,01,21,04,11.90
2021,12,01,21,05,11.90
2021,12,01,21,06,11.90
2021,12,01,21,07,11.90
2021,12,01,21,08,11.90
2021,12,01,21,09,11.90
2021,12,01,21,10,11.90
2021,12,01,21,11,11.90
2021,12,01,21,12,11.90
2021,12,01,21,13,11.90
2021,12,01,21,14,11.90
2021,12,01,21,15,11.90
2021,12,01,21,16,11.90
2021,12,01,21,17,11.90
2021,12,01,21,18,11.90
2021,12,01,21,19,11.80
2021,12,01,21,20,11.80
2021,12,01,21,21,11.80
2021,12,01,21,22,11.80
2021,12,01,21,23,11.80
2021,12,01,21,24,11.80
2021,12,01,21,25,11.80
2021,12,01,21,26,11.80
2021,12,01,21,27,11.90
2021,12,01,21,28,11.90
2021,12,01,21,29,11.90
2021,12,01,21,30,12.00
2021,12,01,21,31,12.00
2021,12,01,21,32,12.00
2021,12,01,21,33,12.00
2021,12,01,21,34,12.00
2021,12,01,21,35,12.00
2021,12,01,21,36,12.00
2021,12,01,21,37,12.00
2021,12,01,21,38,11.90
2021,12,01,21,39,11.90
2021,12,01,21,40,11.90
2021,12,01,21,41,11.90
2021,12,01,21,42,11.90
2021,12,01,21,43,11.80
2021,12,01,21,44,11.80
2021,12,01,21,45,11.80
2021,12,01,21,46,11.70
2021,12,01,21,47,11.70
2021,12,01,21,48,11.60
2021,12,01,21,49,11.60
2021,12,01,21,50,11.50
2021,12,01,21,51,11.50
2021,12,01,21,52,11.40
2021,12,01,21,53,11.40
2021,12,01,21,54,11.30
2021,12,01,21,55,11.20
2021,12,01,21,56,11.20
2021,12,01,21,57,11.10
2021,12,01,21,58,11.10
2021,12,01,21,59,11.00
2021,12,01,22,00,11.00
2021,12,01,22,01,10.90
2021,12,01,22,02,10.90
2021,12,01,22,03,10.80
2021,12,01,22,04,10.70
2021,12,01,22,05,10.70
2021,12,01,22,06,10.60
2021,12,01,22,07,10.60
2021,12,01,22,08,10.60
2021,12,01,22,09,10.50
2021,12,01,22,10,10.40
2021,12,01,22,11,10.40
2021,12,01,22,12,10.30
2021,12,01,22,13,10.30
2021,12,01,22,14,10.30
2021,12,01,22,15,10.20
2021,12,01,22,16,10.20
2021,12,01,22,17,10.10
2021,12,01,22,18,10.10
2021,12,01,22,19,10.10
2021,12,01,22,20,10.10
2021,12,01,22,21,10.00
2021,12,01,22,22,10.00
2021,12,01,22,23,9.90
2021,12,01,22,24,9.90
2021,12,01,22,25,9.90
2021,12,01,22,26,9.80
2021,12,01,22,27,9.80
2021,12,01,22,28,9.80
2021,12,01,22,29,9.70
2021,12,01,22,30,9.70
2021,12,01,22,31,9.70
2021,12,01,22,32,9.60
2021,12,01,22,33,9.60
2021,12,01,22,34,9.60
2021,12,01,22,35,9.50
2021,12,01,22,36,9.50
2021,12,01,22,37,9.50
2021,12,01,22,38,9.40
2021,12,01,22,39,9.40
2021,12,01,22,40,9.40